FW6433 Weather Reports


time (UTC)temp
C
wind
direction
speed
KPH
gust
KPH
rain 1hr
cm
rain 24hr
cm
rain mn
cm
humidity
%
barometer
mb
20260503211346 28 293 3.2 12.9 0.00 0.00 0.00 31 1011.6
20260503211111 27 2 4.8 12.9 0.00 0.00 0.00 33 1012.0
20260503210344 27 4 6.4 11.3 0.00 0.00 0.00 33 1011.8
20260503205844 27 357 6.4 12.9 0.00 0.00 0.00 33 1012.2
20260503205343 27 322 6.4 12.9 0.00 0.00 0.00 32 1011.9
20260503204845 27 271 6.4 9.7 0.00 0.00 0.00 34 1012.2
20260503204344 27 118 0.0 12.9 0.00 0.00 0.00 37 1012.2
20260503203844 27 246 9.7 12.9 0.00 0.00 0.00 35 1012.3
20260503203343 27 319 3.2 11.3 0.00 0.00 0.00 35 1012.1
20260503202843 27 2 4.8 11.3 0.00 0.00 0.00 35 1012.4
20260503202345 27 347 3.2 11.3 0.00 0.00 0.00 35 1012.3
20260503202331 26 234 3.2 11.3 0.00 0.00 0.00 36 1012.7
20260503201343 26 351 6.4 12.9 0.00 0.00 0.00 36 1012.5
20260503200845 27 266 3.2 12.9 0.00 0.00 0.00 36 1012.6
20260503200344 26 232 3.2 14.5 0.00 0.00 0.00 37 1012.5
20260503195844 26 262 3.2 14.5 0.00 0.00 0.00 37 1012.8
20260503195345 26 290 1.6 12.9 0.00 0.00 0.00 37 1012.7
20260503194845 26 290 0.0 11.3 0.00 0.00 0.00 38 1012.9
20260503194344 26 12 3.2 11.3 0.00 0.00 0.00 39 1012.9
20260503193844 25 306 8.0 11.3 0.00 0.00 0.00 39 1013.0
20260503193344 25 281 4.8 11.3 0.00 0.00 0.00 39 1013.2
20260503192844 25 311 4.8 11.3 0.00 0.00 0.00 41 1013.1
20260503192343 26 348 0.0 11.3 0.00 0.00 0.00 41 1013.1
20260503191842 25 358 1.6 6.4 0.00 0.00 0.00 43 1013.2
20260503191331 25 1 3.2 6.4 0.00 0.00 0.00 43 1013.3
20260503190834 25 333 4.8 6.4 0.00 0.00 0.00 43 1013.2
20260503190332 25 304 1.6 11.3 0.00 0.00 0.00 42 1013.4
20260503185821 24 355 6.4 11.3 0.00 0.00 0.00 42 1013.5
20260503185321 23 318 1.6 11.3 0.00 0.00 0.00 43 1013.6
20260503184820 23 299 4.8 14.5 0.00 0.00 0.00 43 1013.6
20260503184312 23 353 6.4 14.5 0.00 0.00 0.00 43 1013.7
20260503183811 23 1 6.4 11.3 0.00 0.00 0.00 43 1013.7
20260503183312 23 345 1.6 12.9 0.00 0.00 0.00 46 1013.8
20260503182811 23 14 1.6 12.9 0.00 0.00 0.00 44 1013.9
20260503182312 23 19 6.4 11.3 0.00 0.00 0.00 44 1014.0
20260503182035 23 21 4.8 11.3 0.00 0.00 0.00 44 1014.2
20260503181529 23 342 6.4 11.3 0.00 0.00 0.00 43 1014.0
20260503180802 23 289 3.2 11.3 0.00 0.00 0.00 45 1014.1
20260503180302 23 5 6.4 11.3 0.00 0.00 0.00 45 1014.2
20260503175800 23 207 1.6 9.7 0.00 0.00 0.00 45 1014.2
20260503175253 23 328 0.0 9.7 0.00 0.00 0.00 46 1014.1
20260503174744 22 27 0.0 9.7 0.00 0.00 0.00 47 1014.3
20260503174242 22 337 3.2 9.7 0.00 0.00 0.00 46 1014.1
20260503173730 22 341 3.2 11.3 0.00 0.00 0.00 47 1014.3
20260503173231 22 229 1.6 11.3 0.00 0.00 0.00 48 1014.2
20260503172942 22 25 4.8 11.3 0.00 0.00 0.00 49 1014.2
20260503172220 22 287 3.2 11.3 0.00 0.00 0.00 49 1014.3
20260503171715 21 323 3.2 9.7 0.00 0.00 0.00 51 1014.5
20260503171216 21 331 4.8 6.4 0.00 0.00 0.00 53 1014.4
20260503170715 21 0 3.2 9.7 0.00 0.00 0.00 54 1014.7
20260503170206 21 2 4.8 9.7 0.00 0.00 0.00 54 1014.4
20260503160140 18 341 0.0 4.8 0.00 0.00 0.00 66 1014.6
20260503150638 15 45 0.0 1.6 0.00 0.00 0.00 78 1015.0
20260503150137 15 71 0.0 1.6 0.00 0.00 0.00 78 1014.8
20260503140125 10 235 0.0 0.0 0.00 0.00 0.00 91 1014.6
20260503131101 10 212 0.0 0.0 0.00 0.00 0.00 91 1014.8
20260503131045 10 212 0.0 0.0 0.00 0.00 0.00 91 1014.7
20260503110444 11 307 0.0 0.0 0.00 0.00 0.00 88 1015.0
20260503090422 12 306 0.0 0.0 0.00 0.00 0.00 83 1014.9
20260503081420 12 97 0.0 0.0 0.00 0.00 0.00 78 1015.1
20260503081146 13 97 0.0 0.0 0.00 0.00 0.00 77 1015.2
20260503080419 13 97 0.0 0.0 0.00 0.00 0.00 77 1015.1
20260503072907 13 80 0.0 0.0 0.00 0.00 0.00 75 1014.9
20260503072358 13 79 0.0 0.0 0.00 0.00 0.00 74 1014.9
20260503071858 13 79 0.0 0.0 0.00 0.00 0.00 73 1015.0
20260503071358 14 97 0.0 0.0 0.00 0.00 0.00 74 1014.9
20260503070910 14 75 0.0 0.0 0.00 0.00 0.00 73 1015.1
20260503070412 14 41 0.0 0.0 0.00 0.00 0.00 73 1015.0
20260503060337 15 338 0.0 0.0 0.00 0.00 0.00 72 1014.6
20260503054836 15 336 0.0 0.0 0.00 0.00 0.00 71 1014.7
20260503054335 16 337 0.0 0.0 0.00 0.00 0.00 71 1014.4
20260503053836 16 343 0.0 0.0 0.00 0.00 0.00 71 1014.5
20260503053337 16 351 0.0 0.0 0.00 0.00 0.00 69 1014.7
20260503052848 16 351 0.0 0.0 0.00 0.00 0.00 71 1014.4
20260503052840 16 351 0.0 0.0 0.00 0.00 0.00 70 1014.6
20260503051825 16 352 0.0 0.0 0.00 0.00 0.00 69 1014.5
20260503051317 16 345 0.0 0.0 0.00 0.00 0.00 68 1014.4
20260503050817 16 344 0.0 0.0 0.00 0.00 0.00 68 1014.6
20260503050315 16 353 0.0 0.0 0.00 0.00 0.00 69 1014.5
20260503045814 16 350 0.0 0.0 0.00 0.00 0.00 69 1014.5
20260503045314 17 5 0.0 0.0 0.00 0.00 0.00 69 1014.5
20260503045036 17 342 0.0 0.0 0.00 0.00 0.00 67 1014.2
20260503044312 17 353 0.0 0.0 0.00 0.00 0.00 67 1014.6
20260503043812 17 347 0.0 0.0 0.00 0.00 0.00 66 1014.5
20260503043312 17 312 0.0 0.0 0.00 0.00 0.00 67 1014.4
20260503042813 17 320 0.0 0.0 0.00 0.00 0.00 67 1014.3
20260503042314 17 345 0.0 0.0 0.00 0.00 0.00 67 1014.3
20260503042037 17 335 0.0 0.0 0.00 0.00 0.00 67 1014.1
20260503041311 18 334 0.0 0.0 0.00 0.00 0.00 65 1014.1
20260503040813 18 344 0.0 1.6 0.00 0.00 0.00 64 1014.0
20260503040311 18 341 0.0 1.6 0.00 0.00 0.00 64 1014.1
20260503035813 18 341 0.0 1.6 0.00 0.00 0.00 64 1013.9
20260503035310 18 347 0.0 0.0 0.00 0.00 0.00 63 1013.7
20260503034812 18 333 0.0 0.0 0.00 0.00 0.00 63 1013.6
20260503034547 19 319 0.0 0.0 0.00 0.00 0.00 61 1013.5
20260503034034 19 326 0.0 1.6 0.00 0.00 0.00 61 1013.5
20260503033311 20 315 0.0 1.6 0.00 0.00 0.00 59 1013.6
20260503033034 20 342 0.0 1.6 0.00 0.00 0.00 59 1013.6
20260503032311 20 350 0.0 0.0 0.00 0.00 0.00 58 1013.4
20260503031812 20 332 0.0 1.6 0.00 0.00 0.00 57 1013.5
20260503031311 21 16 0.0 1.6 0.00 0.00 0.00 55 1013.3
20260503030812 21 353 0.0 6.4 0.00 0.00 0.00 53 1013.2
20260503030313 22 329 1.6 6.4 0.00 0.00 0.00 50 1013.1
20260503030042 22 326 1.6 4.8 0.00 0.00 0.00 49 1012.9
20260503030034 22 338 3.2 4.8 0.00 0.00 0.00 48 1013.0
20260503024800 22 291 1.6 6.4 0.00 0.00 0.00 47 1012.9
20260503024259 23 6 1.6 6.4 0.00 0.00 0.00 46 1013.0
20260503023748 23 273 0.0 3.2 0.00 0.00 0.00 46 1012.9
20260503023247 23 290 0.0 4.8 0.00 0.00 0.00 45 1012.9
20260503022745 23 284 0.0 9.7 0.00 0.00 0.00 44 1012.9
20260503022237 24 258 1.6 9.7 0.00 0.00 0.00 43 1012.8
20260503021737 24 228 1.6 4.8 0.00 0.00 0.00 42 1012.8
20260503021508 25 283 1.6 4.8 0.00 0.00 0.00 42 1012.8
20260503020959 25 271 4.8 4.8 0.00 0.00 0.00 41 1012.7
20260503020234 25 334 0.0 4.8 0.00 0.00 0.00 42 1012.7
20260503015734 25 256 1.6 4.8 0.00 0.00 0.00 41 1012.8
20260503015229 25 245 1.6 9.7 0.00 0.00 0.00 41 1012.8
20260503014727 25 269 1.6 11.3 0.00 0.00 0.00 41 1012.8
20260503014216 25 58 1.6 12.9 0.00 0.00 0.00 42 1012.9
20260503013707 25 244 4.8 12.9 0.00 0.00 0.00 41 1012.8
20260503013206 25 1 1.6 11.3 0.00 0.00 0.00 41 1012.8
20260503012706 25 15 4.8 11.3 0.00 0.00 0.00 41 1012.7
20260503012207 25 253 0.0 12.9 0.00 0.00 0.00 40 1012.9
20260503011705 25 329 1.6 12.9 0.00 0.00 0.00 39 1012.8
20260503011206 25 287 3.2 12.9 0.00 0.00 0.00 40 1012.9
20260503010707 25 234 4.8 12.9 0.00 0.00 0.00 40 1013.0
20260503010206 25 258 6.4 12.9 0.00 0.00 0.00 39 1013.1
20260503005705 25 299 0.0 9.7 0.00 0.00 0.00 40 1012.9
20260503005433 25 324 3.2 11.3 0.00 0.00 0.00 40 1013.0
20260503004653 25 35 4.8 11.3 0.00 0.00 0.00 39 1013.0
20260503004152 25 9 3.2 9.7 0.00 0.00 0.00 39 1013.3
20260503003651 25 307 1.6 12.9 0.00 0.00 0.00 39 1013.3
20260503003151 26 251 0.0 12.9 0.00 0.00 0.00 39 1013.4
20260503002652 25 268 0.0 12.9 0.00 0.00 0.00 39 1012.9
20260503002146 25 328 8.0 16.1 0.00 0.00 0.00 39 1013.0
20260503001648 25 325 11.3 16.1 0.00 0.00 0.00 39 1013.2
20260503001417 25 276 6.4 12.9 0.00 0.00 0.00 39 1013.2
20260503000644 25 272 4.8 12.9 0.00 0.00 0.00 39 1013.3
20260503000122 26 288 4.8 14.5 0.00 0.00 0.00 39 1013.1
20260502235620 25 239 3.2 14.5 0.00 0.00 0.00 41 1013.4
20260502235121 25 271 1.6 12.9 0.00 0.00 0.00 41 1013.2
20260502234622 25 339 4.8 12.9 0.00 0.00 0.00 41 1013.5
20260502234353 25 354 1.6 11.3 0.00 0.00 0.00 40 1013.4
20260502233621 25 216 1.6 11.3 0.00 0.00 0.00 40 1013.5
20260502233120 25 320 4.8 14.5 0.00 0.00 0.00 40 1013.5
20260502232622 25 348 4.8 16.1 0.00 0.00 0.00 42 1013.7
20260502232121 25 324 3.2 16.1 0.00 0.00 0.00 43 1013.6
20260502231620 25 359 3.2 14.5 0.00 0.00 0.00 42 1013.7
20260502231351 25 262 8.0 14.5 0.00 0.00 0.00 43 1013.8
20260502230849 25 7 4.8 11.3 0.00 0.00 0.00 44 1014.1
20260502230119 25 276 1.6 12.9 0.00 0.00 0.00 45 1014.0
20260502225618 25 27 8.0 12.9 0.00 0.00 0.00 45 1014.2
20260502225351 25 345 9.7 14.5 0.00 0.00 0.00 44 1014.2
20260502224632 25 247 6.4 14.5 0.00 0.00 0.00 44 1014.2
20260502224119 25 273 4.8 11.3 0.00 0.00 0.00 44 1014.6
20260502223619 25 221 1.6 11.3 0.00 0.00 0.00 45 1014.5
20260502223119 25 298 6.4 14.5 0.00 0.00 0.00 44 1014.6
20260502222838 25 297 3.2 14.5 0.00 0.00 0.00 45 1014.5
20260502222108 25 351 1.6 14.5 0.00 0.00 0.00 45 1014.4
20260502221607 24 240 4.8 14.5 0.00 0.00 0.00 45 1014.7
20260502221335 25 319 4.8 14.5 0.00 0.00 0.00 44 1014.6
20260502221058 24 348 4.8 14.5 0.00 0.00 0.00 44 1014.7
20260502220107 25 328 4.8 11.3 0.00 0.00 0.00 44 1014.5
20260502215841 24 349 4.8 11.3 0.00 0.00 0.00 45 1014.6
20260502215107 24 358 4.8 11.3 0.00 0.00 0.00 45 1014.8
20260502214608 25 43 4.8 6.4 0.00 0.00 0.00 45 1014.8
20260502214105 25 297 0.0 11.3 0.00 0.00 0.00 45 1015.0
20260502213556 24 253 0.0 14.5 0.00 0.00 0.00 46 1014.9
20260502213055 24 288 4.8 14.5 0.00 0.00 0.00 45 1014.9
20260502212546 23 297 3.2 12.9 0.00 0.00 0.00 47 1015.2
20260502212045 23 276 6.4 12.9 0.00 0.00 0.00 47 1015.1
20260502211544 23 22 4.8 14.5 0.00 0.00 0.00 48 1015.2